Regional Weather Roundup
Issued by NWS Charleston, WV

Home | Current Version | Previous Version | Graphics & Text | Print | Product List | Glossary On
Versions: 1 2 3 4 5 6 7 8 9 10 11 12 13 14 15 16 17 18 19 20 21 22 23 24 25 26 27 28 29 30 31 32 33 34 35 36 37 38 39 40 41 42 43 44 45 46 47 48 49 50
000
ASUS41 KRLX 181410
RWRRLX
West Virginia Regional Weather Roundup
National Weather Service Charleston WV
900 AM EST THU DEC 18 2014

Note: "fair" indicates few or no clouds below 12,000 feet with no
significant weather and/or obstructions to visibility.

WVZ003-181500-
Northern Panhandle of West Virginia

CITY           SKY/WX    TMP DP  RH WIND       PRES   REMARKS
WHEELING       CLOUDY    27  19  72 W7        30.20R
$$

WVZ009-181500-
Northwest West Virginia

CITY           SKY/WX    TMP DP  RH WIND       PRES   REMARKS
PARKERSBURG    CLOUDY    28  18  66 W5        30.29R
$$

WVZ006-181500-
Western West Virginia

CITY           SKY/WX    TMP DP  RH WIND       PRES   REMARKS
HUNTINGTON     CLOUDY    29  22  75 CALM      30.27R
$$

WVZ015-181500-
West Central West Virginia

CITY           SKY/WX    TMP DP  RH WIND       PRES   REMARKS
CHARLESTON     CLOUDY    29  21  72 N5        30.25R
$$

WVZ022-031-181500-
North Central West Virginia

CITY           SKY/WX    TMP DP  RH WIND       PRES   REMARKS
CLARKSBURG     CLOUDY    27  19  72 NW10      30.21S
MORGANTOWN     CLOUDY    27  16  63 W6        30.21R
$$

WVZ025-035-042-045-181500-
Southern West Virginia

CITY           SKY/WX    TMP DP  RH WIND       PRES   REMARKS
BECKLEY        CLOUDY    26  19  74 W3        30.14R
LOGAN          CLOUDY    28  25  86 CALM      30.21R
BLUEFIELD      PTSUNNY   27  21  78 NW5       30.13S
LEWISBURG      MOSUNNY   29  21  73 W6        30.15R
$$

WVZ047-181500-
Northern Mountains of West Virginia

CITY           SKY/WX    TMP DP  RH WIND       PRES   REMARKS
ELKINS         CLOUDY    25  20  81 NW5       30.16R
$$

WVZ052-181500-
Eastern Panhandle of West Virginia

CITY           SKY/WX    TMP DP  RH WIND       PRES   REMARKS
MARTINSBURG    CLOUDY    33  17  51 W8        30.17R
PETERSBURG     PTSUNNY   32  19  59 W9        30.19R
$$


USA.gov is the U.S. government's official web portal to all federal, state and local government web resources and services.